Columbus, OH

6:59 PM EDT on May 24, 2017 (GMT -0400)
Port Columbus International

Weather History for KCMH - October, 2012

Change the Weather History Date:

Monday, October 15, 2012

  Actual Average Record
Temperature  
Mean Temperature 55 °F 55 °F  
Max Temperature 61 °F 65 °F 90 °F (1897)
Min Temperature 49 °F 45 °F 30 °F (1894)
Degree Days  
Heating Degree Days 10 10  
Month to date heating degree days 154 122  
Since 1 July heating degree days 240 191  
Cooling Degree Days 0 0  
Month to date cooling degree days 8 13  
Year to date cooling degree days 1429 1024  
Growing Degree Days 3 (Base 50)    
Moisture  
Dew Point 47 °F    
Average Humidity 77    
Maximum Humidity 93    
Minimum Humidity 61    
Precipitation  
Precipitation 0.02 in 0.08 in 1.18 in (1914)
Month to date precipitation 1.41 1.29  
Year to date precipitation 28.26 31.82  
Snow  
Snow 0.00 in 0.00 in - ()
Month to date snowfall 0.0 0.0  
Since 1 July snowfall 0.0 0.0  
Since 1 September snowfall 0.0 0.0  
Snow Depth 0.00 in    
Sea Level Pressure  
Sea Level Pressure 29.83 in    
Wind  
Wind Speed 12 mph (West)    
Max Wind Speed 28 mph    
Max Gust Speed 33 mph    
Visibility 10 miles    
Events Rain    
T = Trace of Precipitation, MM = Missing Value Source: NWS Daily Summary

Daily Weather History Graph

Daily Weather History Graph

Search for Another Location

Airport or City:

Trip Planner

Search our weather history database for the weather conditions in past years. The results will help you decide how hot, cold, wet, or windy it might be!

Date:

Astronomy

Oct. 15, 2012 Rise Set
Actual Time 7:42 AM EDT 6:51 PM EDT
Civil Twilight 7:15 AM EDT 7:18 PM EDT
Nautical Twilight 6:43 AM EDT 7:49 PM EDT
Astronomical Twilight 6:12 AM EDT 8:21 PM EDT
Moon 7:51 AM EDT (10/15) 6:50 PM EDT (10/15)
Length of Visible Light 12h 03m
Length of Day
11h 08m
New Moon, 0% of the Moon is Illuminated
Oct 15
New Moon
Oct 21
First Quarter
Oct 29
Full
Nov 6
Last Quarter
Nov 13
New

Hourly Weather History & Observations

Time (EDT) Temp. Dew Point Humidity Pressure Visibility Wind Dir Wind Speed Gust Speed Precip Events Conditions
12:07 AM 62.6 °F 55.4 °F 77% 29.72 in 10.0 mi West 20.7 mph 39.1 mph 0.00 in Rain Light Rain
12:51 AM 62.1 °F 55.0 °F 78% 29.71 in 10.0 mi WSW 15.0 mph - 0.00 in   Overcast
1:12 AM 60.8 °F 55.4 °F 82% 29.73 in 10.0 mi West 17.3 mph - N/A   Overcast
1:44 AM 60.8 °F 51.8 °F 72% 29.74 in 10.0 mi West 20.7 mph 29.9 mph N/A   Overcast
1:51 AM 60.1 °F 52.0 °F 75% 29.74 in 10.0 mi West 18.4 mph - N/A   Overcast
2:14 AM 59.0 °F 51.8 °F 77% 29.76 in 10.0 mi WNW 13.8 mph 27.6 mph N/A   Overcast
2:51 AM 57.0 °F 48.0 °F 72% 29.77 in 10.0 mi West 15.0 mph 24.2 mph N/A   Overcast
2:58 AM 57.2 °F 48.2 °F 72% 29.77 in 10.0 mi West 19.6 mph 24.2 mph N/A   Overcast
3:29 AM 55.4 °F 48.2 °F 77% 29.77 in 10.0 mi WNW 15.0 mph 20.7 mph N/A   Overcast
3:51 AM 55.0 °F 46.9 °F 74% 29.76 in 10.0 mi West 18.4 mph 25.3 mph N/A   Overcast
4:51 AM 55.0 °F 46.0 °F 72% 29.77 in 10.0 mi West 11.5 mph - N/A   Overcast
5:51 AM 55.0 °F 46.9 °F 74% 29.79 in 10.0 mi WSW 13.8 mph - N/A   Overcast
6:51 AM 55.0 °F 46.0 °F 72% 29.79 in 10.0 mi West 16.1 mph - N/A   Overcast
7:51 AM 54.0 °F 45.0 °F 72% 29.79 in 10.0 mi West 10.4 mph - N/A   Overcast
7:58 AM 53.6 °F 44.6 °F 72% 29.80 in 10.0 mi West 10.4 mph - N/A   Overcast
8:51 AM 54.0 °F 46.0 °F 75% 29.81 in 10.0 mi West 9.2 mph - N/A   Overcast
9:51 AM 53.1 °F 48.0 °F 83% 29.81 in 7.0 mi WSW 10.4 mph - N/A   Overcast
10:25 AM 51.8 °F 50.0 °F 94% 29.83 in 4.0 mi SW 9.2 mph - 0.01 in Rain Light Rain
10:51 AM 53.1 °F 51.1 °F 93% 29.83 in 10.0 mi WSW 8.1 mph - 0.01 in   Overcast
11:51 AM 52.0 °F 48.9 °F 89% 29.85 in 6.0 mi WNW 10.4 mph - 0.01 in Rain Light Rain
12:28 PM 51.8 °F 48.2 °F 88% 29.85 in 10.0 mi West 13.8 mph - 0.00 in   Overcast
12:51 PM 53.1 °F 46.9 °F 80% 29.85 in 10.0 mi West 15.0 mph - 0.00 in   Overcast
1:44 PM 53.6 °F 46.4 °F 77% 29.85 in 10.0 mi West 10.4 mph - 0.00 in   Overcast
1:51 PM 54.0 °F 46.0 °F 75% 29.85 in 10.0 mi West 12.7 mph - 0.00 in   Light Drizzle
2:51 PM 53.1 °F 46.0 °F 77% 29.86 in 10.0 mi West 17.3 mph - 0.00 in   Overcast
2:58 PM 53.6 °F 44.6 °F 72% 29.86 in 10.0 mi West 16.1 mph - N/A   Overcast
3:51 PM 54.0 °F 45.0 °F 72% 29.87 in 10.0 mi West 12.7 mph - N/A   Overcast
4:51 PM 55.0 °F 43.0 °F 64% 29.88 in 10.0 mi West 13.8 mph - N/A   Overcast
5:51 PM 55.0 °F 43.0 °F 64% 29.89 in 10.0 mi WNW 10.4 mph - N/A   Overcast
6:51 PM 54.0 °F 42.1 °F 64% 29.91 in 10.0 mi WNW 10.4 mph 18.4 mph N/A   Mostly Cloudy
7:51 PM 54.0 °F 42.1 °F 64% 29.93 in 10.0 mi WNW 11.5 mph - N/A   Overcast
8:51 PM 53.1 °F 42.1 °F 66% 29.94 in 10.0 mi WNW 9.2 mph - N/A   Overcast
9:51 PM 52.0 °F 42.1 °F 69% 29.94 in 10.0 mi NW 4.6 mph - N/A   Overcast
10:43 PM 51.8 °F 42.8 °F 71% 29.95 in 10.0 mi WNW 6.9 mph - N/A   Overcast
10:48 PM 51.8 °F 42.8 °F 71% 29.95 in 10.0 mi NW 8.1 mph - N/A   Overcast
10:51 PM 52.0 °F 42.1 °F 69% 29.95 in 10.0 mi NW 6.9 mph - N/A   Overcast
11:51 PM 51.1 °F 39.9 °F 66% 29.95 in 10.0 mi NW 6.9 mph - N/A   Overcast